Location: Unspecified
(52.4292°N, 19.3359°E)
Time: 01:18:32
(UTC+02:00)

A-11 Canister half - Pass Details

Date: 22 May 2024
Orbit: 1514 x 1685 km, 47.2° (Epoch: 20 June)

Event Time Altitude Azimuth Distance (km) Brightness Sun altitude
Rises 07:16:02 0° 276° (W) 4,698 11.0 21.6°
Reaches altitude 10° 07:19:09 10° 272° (W) 3,700 10.5 22.1°
Maximum altitude 07:28:07 56° 198° (SSW) 1,760 9.5 23.5°
Drops below altitude 10° 07:37:02 10° 123° (ESE) 3,681 12.0 24.8°
Sets 07:40:08 0° 120° (ESE) 4,672 12.5 25.3°
